STARLINK-2317 (47982 NORAD) Tracking and Keplerian Element Data

This shows tracking and keplerian element data for the satellite.

Feedback or suggestion? Click here.




ElementValue
Catalog47982
NameSTARLINK-2317
Epoch Orbit198
Epoch Day173.91668981
Epoch Year2021
RAAN114.3231
Inclination53.0458
Eccentricity0.0002197
Argument of Perigee25.455
Mean Anonmoly113.0837
Mean Motion15.73202922
Decay Rate0.000161
L11 47982U 21024F 21173.91668981 .00016100 00000-0 11888-3 0 9998
L22 47982 53.0458 114.3231 0002197 25.4550 113.0837 15.73202922 1986

Live tracking and technical data element details for STARLINK-2317 (NORAD 47982). STARLINK-2317 can be tracked NOW for your location showing map with azimuth and elevation plus other details from your city location.

Track the satellite on the map from your city or location and see movement details for azimuth, elevation, latitude, longitude, range, height, and movement on the map or in text.







IsCatalogInMostPopularTable: catalog: 47982, numindb: 47
Update: records affected: 1



GetName: 47982 STARLINK-2317

Hit Count: updated at: Thu, 24 Jun 2021 03:46:04 GMT